Tiempo cada hora Barra da Estiva

Hoy, 14 Mayo, Viernes

Tiempo Temperatura Precipitaciones Viento Presión Humedad
00:00 +18°C° 0 mm 1 mps 676 mmHg 70%
01:00 +18°C° 0 mm 1 mps 676 mmHg 77%
02:00 +16°C° 0 mm 1 mps 676 mmHg 84%
03:00 +15°C° 0 mm 1 mps 675 mmHg 91%
04:00 +15°C° 0 mm 1 mps 675 mmHg 92%
05:00 +15°C° 0 mm 1 mps 676 mmHg 93%
06:00 +15°C° 0 mm 1 mps 676 mmHg 94%
07:00 +18°C° 0 mm 1 mps 676 mmHg 84%
08:00 +19°C° 0 mm 2 mps 677 mmHg 74%
09:00 +21°C° 0 mm 2 mps 678 mmHg 64%
10:00 +22°C° 0 mm 3 mps 678 mmHg 57%
11:00 +25°C° 0 mm 3 mps 678 mmHg 51%
12:00 +26°C° 0 mm 3 mps 677 mmHg 44%
13:00 +26°C° 0 mm 3 mps 677 mmHg 42%
14:00 +27°C° 0 mm 3 mps 676 mmHg 39%
15:00 +27°C° 0 mm 3 mps 676 mmHg 37%
16:00 +25°C° 0 mm 2 mps 676 mmHg 42%
17:00 +23°C° 0 mm 2 mps 675 mmHg 46%
18:00 +21°C° 0 mm 1 mps 675 mmHg 51%
19:00 +20°C° 0 mm 1 mps 675 mmHg 56%
20:00 +19°C° 0 mm 2 mps 676 mmHg 62%
21:00 +18°C° 0 mm 2 mps 676 mmHg 67%
22:00 +18°C° 0 mm 1 mps 676 mmHg 72%
23:00 +18°C° 0 mm 1 mps 676 mmHg 77%

Mañana, 15 Mayo, Sábado

Tiempo Temperatura Precipitaciones Viento Presión Humedad
00:00 +16°C° 0 mm 1 mps 676 mmHg 81%
01:00 +16°C° 0 mm 1 mps 676 mmHg 84%
02:00 +15°C° 0 mm 1 mps 675 mmHg 87%
03:00 +15°C° 0 mm 1 mps 675 mmHg 90%
04:00 +15°C° 0 mm 1 mps 675 mmHg 91%
05:00 +15°C° 0 mm 1 mps 675 mmHg 93%
06:00 +15°C° 0 mm 1 mps 675 mmHg 94%
07:00 +18°C° 0 mm 1 mps 676 mmHg 85%
08:00 +19°C° 0 mm 1 mps 677 mmHg 76%
09:00 +20°C° 0 mm 2 mps 678 mmHg 67%
10:00 +23°C° 0 mm 2 mps 678 mmHg 61%
11:00 +24°C° 0 mm 2 mps 677 mmHg 54%
12:00 +26°C° 0 mm 2 mps 677 mmHg 48%
13:00 +26°C° 0 mm 2 mps 677 mmHg 46%
14:00 +26°C° 0 mm 2 mps 676 mmHg 45%
15:00 +26°C° 0 mm 2 mps 676 mmHg 44%
16:00 +25°C° 0 mm 2 mps 676 mmHg 50%
17:00 +23°C° 0 mm 2 mps 676 mmHg 56%
18:00 +20°C° 0 mm 2 mps 676 mmHg 62%
19:00 +19°C° 0 mm 2 mps 676 mmHg 69%
20:00 +19°C° 0 mm 1 mps 676 mmHg 75%
21:00 +18°C° 0 mm 1 mps 677 mmHg 82%
22:00 +18°C° 0 mm 1 mps 677 mmHg 84%
23:00 +16°C° 0 mm 1 mps 676 mmHg 86%

Pasado mañana, 16 Mayo, Domingo

Tiempo Temperatura Precipitaciones Viento Presión Humedad
00:00 +15°C° 0 mm 0 mps 676 mmHg 88%
01:00 +14°C° 0 mm 0 mps 676 mmHg 90%
02:00 +15°C° 0 mm 1 mps 676 mmHg 92%
03:00 +15°C° 0 mm 1 mps 675 mmHg 93%
04:00 +15°C° 0 mm 1 mps 675 mmHg 93%
05:00 +15°C° 0 mm 1 mps 676 mmHg 93%
06:00 +15°C° 0 mm 1 mps 676 mmHg 93%
07:00 +18°C° 0 mm 1 mps 676 mmHg 86%
08:00 +19°C° 0 mm 1 mps 677 mmHg 78%
09:00 +20°C° 0 mm 1 mps 678 mmHg 71%
10:00 +21°C° 0 mm 2 mps 678 mmHg 64%
11:00 +23°C° 0 mm 2 mps 678 mmHg 57%
12:00 +25°C° 0 mm 2 mps 677 mmHg 50%
13:00 +25°C° 0 mm 2 mps 677 mmHg 48%
14:00 +25°C° 0 mm 2 mps 676 mmHg 46%
15:00 +26°C° 0 mm 2 mps 676 mmHg 45%
16:00 +24°C° 0 mm 2 mps 676 mmHg 50%
17:00 +22°C° 0 mm 1 mps 676 mmHg 56%
18:00 +20°C° 0 mm 1 mps 676 mmHg 62%
19:00 +20°C° 0 mm 1 mps 676 mmHg 62%
20:00 +20°C° 0 mm 1 mps 676 mmHg 63%
21:00 +19°C° 0 mm 1 mps 677 mmHg 64%
22:00 +18°C° 0 mm 1 mps 676 mmHg 69%
23:00 +18°C° 0 mm 1 mps 676 mmHg 75%

17 Mayo, Lunes

Tiempo Temperatura Precipitaciones Viento Presión Humedad
00:00 +16°C° 0 mm 1 mps 676 mmHg 80%
01:00 +15°C° 0 mm 1 mps 676 mmHg 84%
02:00 +15°C° 0 mm 1 mps 676 mmHg 87%
03:00 +15°C° 0 mm 1 mps 675 mmHg 91%
04:00 +14°C° 0 mm 1 mps 675 mmHg 92%
05:00 +14°C° 0 mm 1 mps 676 mmHg 93%
06:00 +14°C° 0 mm 1 mps 676 mmHg 93%
07:00 +16°C° 0 mm 1 mps 677 mmHg 83%
08:00 +20°C° 0 mm 1 mps 677 mmHg 72%
09:00 +22°C° 0 mm 1 mps 678 mmHg 62%
10:00 +24°C° 0 mm 2 mps 678 mmHg 55%
11:00 +26°C° 0 mm 2 mps 678 mmHg 48%
12:00 +27°C° 0 mm 2 mps 678 mmHg 41%
13:00 +27°C° 0 mm 2 mps 677 mmHg 39%
14:00 +28°C° 0 mm 3 mps 676 mmHg 37%
15:00 +28°C° 0 mm 3 mps 676 mmHg 35%
16:00 +26°C° 0 mm 2 mps 676 mmHg 41%
17:00 +24°C° 0 mm 2 mps 675 mmHg 47%
18:00 +21°C° 0 mm 1 mps 675 mmHg 53%
19:00 +21°C° 0 mm 1 mps 675 mmHg 55%
20:00 +20°C° 0 mm 1 mps 676 mmHg 57%
21:00 +20°C° 0 mm 1 mps 676 mmHg 59%
22:00 +19°C° 0 mm 1 mps 676 mmHg 62%
23:00 +19°C° 0 mm 1 mps 676 mmHg 65%

18 Mayo, Martes

Tiempo Temperatura Precipitaciones Viento Presión Humedad
00:00 +18°C° 0 mm 1 mps 676 mmHg 68%
01:00 +18°C° 0 mm 1 mps 675 mmHg 71%
02:00 +16°C° 0 mm 1 mps 675 mmHg 74%
03:00 +16°C° 0 mm 1 mps 675 mmHg 77%
04:00 +15°C° 0 mm 1 mps 675 mmHg 79%
05:00 +15°C° 0 mm 1 mps 675 mmHg 81%
06:00 +15°C° 0 mm 1 mps 675 mmHg 83%
07:00 +19°C° 0 mm 1 mps 676 mmHg 74%
08:00 +21°C° 0 mm 1 mps 677 mmHg 64%
09:00 +24°C° 0 mm 1 mps 678 mmHg 55%
10:00 +25°C° 0 mm 2 mps 677 mmHg 49%
11:00 +27°C° 0 mm 2 mps 677 mmHg 43%
12:00 +29°C° 0 mm 2 mps 677 mmHg 38%
13:00 +29°C° 0 mm 2 mps 676 mmHg 36%
14:00 +29°C° 0 mm 2 mps 676 mmHg 35%
15:00 +29°C° 0 mm 3 mps 675 mmHg 34%
16:00 +27°C° 0 mm 2 mps 675 mmHg 39%
17:00 +25°C° 0 mm 2 mps 675 mmHg 45%
18:00 +23°C° 0 mm 1 mps 675 mmHg 50%
19:00 +23°C° 0 mm 1 mps 675 mmHg 52%
20:00 +22°C° 0 mm 1 mps 675 mmHg 55%
21:00 +21°C° 0 mm 1 mps 676 mmHg 57%
22:00 +21°C° 0 mm 1 mps 676 mmHg 60%
23:00 +20°C° 0 mm 1 mps 676 mmHg 62%

19 Mayo, Miércoles

Tiempo Temperatura Precipitaciones Viento Presión Humedad
00:00 +20°C° 0 mm 1 mps 676 mmHg 64%
01:00 +20°C° 0 mm 1 mps 675 mmHg 66%
02:00 +19°C° 0 mm 1 mps 675 mmHg 68%
03:00 +19°C° 0 mm 1 mps 675 mmHg 70%
04:00 +19°C° 0 mm 1 mps 675 mmHg 73%
05:00 +18°C° 0 mm 1 mps 675 mmHg 76%
06:00 +18°C° 0 mm 1 mps 675 mmHg 78%
07:00 +20°C° 0 mm 1 mps 676 mmHg 70%
08:00 +23°C° 0 mm 2 mps 677 mmHg 61%
09:00 +25°C° 0 mm 2 mps 678 mmHg 53%
10:00 +27°C° 0 mm 2 mps 678 mmHg 47%
11:00 +28°C° 0 mm 2 mps 677 mmHg 42%
12:00 +30°C° 0 mm 3 mps 677 mmHg 37%
13:00 +30°C° 0 mm 3 mps 677 mmHg 36%
14:00 +30°C° 0 mm 3 mps 676 mmHg 35%
15:00 +30°C° 0 mm 3 mps 675 mmHg 35%
16:00 +28°C° 0 mm 2 mps 675 mmHg 38%
17:00 +27°C° 0 mm 2 mps 675 mmHg 42%
18:00 +25°C° 0 mm 2 mps 675 mmHg 45%
19:00 +24°C° 0 mm 2 mps 675 mmHg 48%
20:00 +23°C° 0 mm 2 mps 675 mmHg 52%
21:00 +21°C° 0 mm 2 mps 676 mmHg 55%
22:00 +20°C° 0 mm 2 mps 676 mmHg 61%
23:00 +19°C° 0 mm 2 mps 676 mmHg 67%
Mostrar más

Necesitamos Su Consentimiento

Meteoprog y nuestros Proveedores de Servicios pueden almacenar y acceder a sus datos personales como cookies, identificadores de dispositivo u otras tecnologías similares de su dispositivo y procesar dichos datos para personalizar contenido y anuncios, además de ofrecer funciones de redes sociales y analizar el tráfico.

  • Almacenar y/o acceder a información en su dispositivo

    Se puede almacenar o acceder a cookies, identificadores de dispositivo u otra información de su dispositivo para los fines anteriormente indicados.

  • Anuncios y contenido personalizados, medición de anuncios y contenido, percepciones del público, y desarrollo de productos

    Los anuncios y el contenido pueden personalizarse en base a su perfil. Se pueden añadir más datos para personalizar mejor los anuncios y contenidos. Se puede medir el rendimiento de los anuncios y contenidos. Se puede obtener la percepción sobre el público que ha visto los anuncios y contenidos. Dichos datos pueden usarse para desarrollar o mejorar la experiencia del usuario, sistemas y software.

Al hacer clic en ‘Estoy De Acuerdo’ usted permitirá el uso de las cookies, identificadores de dispositivo, balizas web u otras tecnologías similares indicadas. Su configuración puede cambiarse desde el navegador de su dispositivo.

Para ciertos fines, los intereses legítimos pueden ser considerados por encima del consentimiento. Puede leer más sobre ello en nuestra Política de Privacidad y Cookies.